Theta_e
283 283 283 283 283 283 283 283 283 284 283 284 283 283 283 284 284 284 285 284 285 285 286 286 287 288 288 288 288 289 290 291 293 295 295 294 295 296 297 297 296 296 297 298 299 300 301 302 304 307 310 311 312 313 313 313 312 313 313 314 314 315 315 313 310 309 310 307 311 312 304 302 302 302 304 305 306 304 302 303 304 302 302 301 301
282 282 282 282 281 281 281 282 282 282 282 282 282 282 282 282 283 283 283 284 284 284 284 285 286 287 287 287 287 288 289 290 292 293 293 293 294 295 296 296 296 297 297 297 297 298 299 299 301 303 305 307 309 311 312 312 312 311 311 311 312 313 314 312 310 309 308 303 305 304 303 301 306 298 306 305 305 302 302 302 301 301 300 300 301
281 281 281 280 280 280 280 280 281 280 280 280 280 281 281 281 282 281 282 282 283 283 284 284 285 286 285 286 286 287 288 290 292 292 293 293 293 294 294 294 294 294 295 295 296 297 297 298 298 300 302 303 304 307 309 311 312 312 312 312 311 311 312 313 311 310 309 309 309 310 307 301 303 305 301 302 300 299 301 302 301 299 299 300 301
280 280 280 279 279 279 279 279 279 279 279 279 279 280 280 280 281 281 281 282 282 283 283 284 284 284 284 284 285 286 287 289 290 292 293 292 291 291 291 292 292 293 293 294 294 295 295 295 296 298 299 299 301 303 305 307 308 309 309 310 312 312 313 312 312 311 309 307 305 305 305 303 304 299 298 296 299 298 299 301 299 299 298 298 301
279 278 278 277 277 278 278 278 278 278 278 278 278 279 279 279 280 280 280 280 281 281 282 284 284 284 284 284 284 285 286 287 288 290 289 289 289 289 290 290 290 291 292 293 294 294 294 294 295 296 297 297 299 300 302 303 304 306 307 309 309 310 311 311 311 311 309 307 308 306 300 298 298 295 297 300 298 296 296 299 300 300 300 299 298
278 277 277 277 276 276 276 276 276 276 277 277 277 278 278 278 279 279 280 279 280 281 281 282 283 283 284 284 285 285 286 287 288 287 287 288 289 289 289 289 289 289 290 291 292 293 293 294 294 295 295 296 297 298 300 300 302 303 304 306 307 308 309 309 309 309 309 309 309 308 299 303 297 293 295 298 299 297 296 295 294 294 297 298 298
277 277 276 276 276 276 276 276 276 276 276 276 276 277 277 278 278 278 279 279 279 280 281 282 283 283 283 284 284 285 286 287 287 286 287 288 288 289 289 289 289 289 289 290 291 292 293 294 295 295 295 296 296 296 296 297 298 299 301 302 304 305 305 306 307 307 308 308 307 307 306 297 298 302 294 294 295 295 298 294 297 297 294 297 299
276 276 276 275 275 275 275 275 275 275 276 276 276 276 276 276 277 278 278 278 279 279 280 281 282 282 283 283 284 285 285 286 286 286 287 287 288 288 288 288 288 288 289 290 291 291 292 293 294 295 295 294 294 294 295 295 296 296 298 299 300 300 301 301 302 303 303 303 304 304 299 301 292 289 289 293 295 293 296 298 299 300 299 293 294
276 275 275 274 274 274 275 274 274 275 275 275 275 275 276 276 276 277 277 278 279 279 280 280 281 281 282 283 283 284 285 285 285 286 287 287 288 288 288 288 288 288 288 289 290 291 291 292 293 293 293 291 290 291 292 292 295 295 297 298 298 298 299 300 300 300 300 301 301 300 299 298 295 294 292 293 297 301 299 297 298 297 293 292 292
275 275 274 274 274 273 274 274 273 274 274 274 274 275 275 275 276 276 276 276 277 278 279 279 280 280 280 281 282 283 284 285 285 287 288 288 288 288 288 288 288 288 288 288 289 290 291 291 292 290 289 290 290 291 292 293 292 294 295 296 296 297 298 298 298 298 299 299 300 300 299 301 300 297 299 298 296 293 293 294 297 297 293 292 291
274 274 274 273 273 273 273 273 273 273 273 273 273 274 274 275 275 275 276 276 276 277 278 278 278 279 279 280 280 282 283 284 286 288 288 289 288 288 287 287 287 287 287 288 287 288 289 290 291 290 291 290 292 291 292 292 292 293 293 293 293 295 295 296 298 299 298 298 299 300 300 300 302 299 298 298 292 297 299 296 297 293 294 296 297
274 273 273 273 273 272 272 272 272 273 273 273 273 273 273 273 274 274 274 275 276 276 276 277 277 278 279 279 279 280 282 284 286 287 288 288 289 288 287 287 287 286 286 287 287 287 288 289 290 291 292 292 292 293 292 292 292 292 292 293 293 293 294 295 295 297 298 299 299 300 301 301 303 300 298 293 297 295 294 294 295 297 296 294 292
273 272 272 272 272 272 272 272 272 272 272 272 273 273 273 273 273 273 274 274 275 275 276 276 276 277 278 278 278 279 280 283 286 287 287 288 288 288 287 286 286 286 286 286 286 287 287 288 289 290 291 289 290 292 292 293 292 292 292 292 293 294 295 296 295 296 298 298 298 299 301 303 303 303 299 297 298 299 294 293 294 294 297 297 297
272 272 271 271 271 271 271 271 271 271 272 272 272 272 272 272 273 273 274 274 274 274 274 275 275 276 277 277 278 279 279 283 285 286 287 288 288 287 286 286 286 286 286 286 286 286 287 287 288 288 289 290 290 290 290 291 291 292 293 294 295 294 294 294 294 293 293 296 298 297 300 302 302 304 302 300 300 299 297 296 296 295 294 296 296
271 271 270 270 270 270 271 271 271 271 271 271 271 271 272 272 272 272 273 273 273 273 273 273 274 275 276 277 277 278 279 283 284 285 286 287 287 286 285 286 285 285 285 285 286 286 287 288 288 287 287 287 288 288 288 289 290 290 290 291 292 294 295 296 297 298 298 299 299 299 301 303 303 304 306 304 302 303 303 302 301 300 295 289 288
270 270 269 269 270 270 270 270 270 270 270 270 270 270 271 271 271 272 272 272 273 273 273 273 273 274 275 276 276 277 278 282 283 284 285 286 286 284 284 283 283 284 284 285 286 286 287 287 286 285 285 286 287 288 288 288 288 288 288 289 290 292 294 293 295 296 297 299 300 301 302 302 301 303 303 304 302 300 298 292 292 292 293 293 293
269 269 269 269 269 270 270 270 270 270 270 270 270 270 270 270 270 271 271 271 271 271 271 272 273 274 274 275 275 276 277 279 282 284 284 284 284 283 283 282 283 283 284 285 285 286 286 285 285 285 285 285 286 288 289 288 287 286 286 287 288 289 291 294 295 295 295 295 295 296 297 298 298 299 299 299 298 299 296 293 293 293 293 292 292
268 268 268 268 268 269 269 269 269 269 269 269 269 269 270 270 270 271 270 270 270 271 271 272 273 273 274 274 275 275 276 278 282 283 283 283 283 281 282 282 282 283 283 284 284 284 284 285 284 284 284 284 287 288 288 287 285 285 285 285 285 286 288 291 294 295 295 295 294 294 294 295 295 296 297 297 297 296 297 295 295 294 294 294 294
265 266 267 268 267 268 268 268 268 268 268 268 268 268 269 269 269 270 270 270 270 271 271 271 272 273 273 274 276 276 276 278 281 281 282 282 282 281 281 281 281 281 281 282 282 283 283 283 283 284 284 285 286 287 287 286 285 285 285 285 284 284 287 289 290 292 292 293 294 296 296 294 293 294 294 294 294 293 298 300 298 295 295 294 294
264 265 266 266 266 266 267 266 267 267 267 267 268 268 269 269 269 269 269 270 270 270 271 271 271 272 273 274 275 275 276 277 278 280 281 281 282 281 281 280 279 279 280 280 280 281 281 281 282 283 285 285 286 286 287 287 286 286 286 285 284 284 287 288 288 288 289 290 292 293 294 296 295 293 292 292 293 292 296 299 299 298 297 296 294
263 264 264 264 265 265 265 265 266 266 266 266 267 266 267 267 268 267 267 269 270 270 271 271 271 271 272 273 274 275 276 276 276 279 280 281 282 281 279 279 279 279 279 279 279 279 280 280 280 282 284 285 285 286 286 287 287 286 286 285 286 286 287 287 287 287 288 289 290 291 293 294 294 294 292 292 292 292 293 295 298 299 299 297 294
262 263 263 263 263 264 264 264 265 266 265 265 265 265 266 266 266 266 266 267 269 269 270 271 271 271 272 273 274 274 275 276 275 278 280 280 280 280 279 278 279 279 278 278 278 278 279 279 279 281 283 284 285 286 286 287 287 286 286 287 288 288 287 287 287 287 287 287 288 289 290 292 294 294 294 293 294 293 294 295 295 297 299 301 300
261 261 262 262 262 262 263 263 264 265 264 264 264 264 264 263 263 264 266 267 267 268 269 270 271 271 272 273 274 274 274 275 277 277 278 279 279 279 280 279 280 279 277 276 277 277 278 278 279 281 282 283 284 285 286 287 286 286 287 288 288 288 287 286 286 286 286 286 287 288 289 291 291 293 294 293 294 293 293 293 294 295 295 295 296
260 260 260 260 260 260 261 262 263 263 262 263 263 262 262 262 262 262 264 265 266 267 268 270 270 271 271 272 273 273 274 276 276 277 276 277 278 279 279 280 280 278 277 277 277 277 277 278 279 282 283 283 284 285 285 285 285 287 288 288 287 286 286 285 285 285 285 286 286 287 288 291 292 293 294 294 295 294 293 293 294 294 295 295 295
258 258 258 259 258 259 259 260 261 261 261 262 261 261 260 261 261 261 262 264 266 266 267 268 268 269 270 270 271 273 274 275 275 275 275 275 277 278 278 279 279 278 276 276 277 277 279 281 281 282 282 283 284 284 285 285 286 287 287 287 285 285 285 285 285 285 285 285 286 288 289 291 292 294 295 294 293 293 291 291 291 292 291 292 291
257 258 258 258 258 258 258 259 259 259 260 260 260 260 258 258 258 260 260 262 265 266 266 268 268 269 269 270 271 272 274 273 273 273 274 275 276 277 277 277 276 277 277 276 278 279 280 280 281 282 282 282 283 283 284 285 286 286 285 284 284 284 285 286 286 286 285 286 287 287 289 291 292 293 293 293 293 293 292 292 292 291 290 291 291
256 257 257 258 258 259 258 259 259 259 259 260 259 259 260 259 259 258 258 258 263 265 266 267 267 268 269 270 271 272 272 271 271 272 273 274 274 275 275 275 275 276 276 276 277 277 279 279 280 282 282 283 283 284 285 285 285 285 286 286 286 286 287 287 287 287 287 287 287 288 290 291 292 291 292 292 292 293 292 292 292 292 291 291 291
255 255 256 257 257 259 258 259 259 258 258 259 258 259 259 259 259 260 260 261 263 265 266 267 268 268 269 270 271 270 269 270 270 270 272 273 274 274 274 274 274 274 275 276 277 278 278 279 279 281 282 283 283 284 284 285 285 285 285 286 286 286 286 286 287 287 288 288 289 289 289 290 290 291 292 292 293 293 292 291 291 291 291 290 289
255 256 256 256 257 258 258 258 258 258 258 258 259 259 259 259 263 265 267 267 266 266 267 268 269 270 271 271 269 268 268 268 269 273 274 275 273 273 273 273 274 274 276 278 277 277 277 277 279 280 280 279 280 280 281 282 283 284 284 285 285 285 285 286 286 286 287 288 288 288 288 289 290 291 291 292 292 292 291 291 291 291 290 290 290
255 255 256 256 257 258 257 257 257 257 257 257 258 258 262 264 266 266 266 268 268 271 272 270 271 272 271 270 270 268 267 269 274 275 274 274 275 275 275 276 277 276 277 278 277 275 275 276 275 275 275 275 275 276 277 278 278 279 281 283 284 285 285 285 286 286 287 287 287 288 288 289 289 290 291 291 292 292 291 290 291 290 290 289 289
254 254 255 255 257 257 257 256 256 255 256 257 257 257 258 260 266 268 268 266 267 270 272 272 272 272 270 268 269 272 272 273 273 273 273 274 274 275 275 276 276 276 277 275 273 272 272 271 271 272 272 273 273 273 274 275 275 277 278 280 281 283 284 285 286 286 286 286 287 287 288 288 289 290 290 291 291 291 291 290 290 290 290 289 289
253 254 255 256 257 257 257 257 257 257 257 257 257 258 258 258 259 263 264 265 267 269 270 270 270 270 270 270 269 268 270 271 271 272 272 273 273 274 274 275 275 275 275 274 269 269 270 269 269 269 270 270 270 271 271 272 273 274 275 276 277 280 282 283 285 286 286 286 286 286 287 288 288 289 290 290 290 291 291 289 289 289 289 290 290
253 254 255 256 256 256 257 256 256 256 256 257 257 258 257 258 257 258 261 263 265 266 267 268 268 268 268 269 269 269 268 269 270 271 271 272 272 273 274 273 273 273 273 268 267 267 267 267 267 268 268 267 268 268 268 269 270 271 272 273 274 277 279 282 284 284 285 286 286 286 287 287 288 288 289 290 290 290 290 289 289 289 289 289 289
254 254 255 255 255 256 256 256 256 256 257 258 258 258 257 257 257 258 258 258 259 261 263 264 265 265 266 267 267 267 267 268 268 269 270 271 271 272 271 268 270 271 270 265 266 265 266 265 266 266 266 266 266 267 267 267 268 269 270 271 272 274 276 279 281 283 284 285 285 286 286 287 288 288 289 290 290 290 290 289 289 289 288 289 289
254 254 255 255 255 256 256 256 256 256 257 257 257 256 256 257 258 258 258 257 257 257 257 259 261 262 261 262 264 265 266 267 268 268 269 269 270 271 268 263 263 264 264 264 265 264 264 264 264 265 265 264 265 266 266 266 267 267 268 269 270 272 274 276 278 280 282 284 284 285 286 286 287 288 288 289 289 289 289 289 289 289 289 289 289
254 254 255 255 255 255 255 255 256 256 256 256 256 256 257 257 257 257 257 257 257 256 257 257 258 260 261 260 261 262 263 264 265 266 267 268 269 268 261 261 262 262 263 263 263 263 264 263 264 263 264 264 265 265 265 265 266 267 267 268 269 270 271 272 275 277 279 281 283 284 285 286 287 287 288 289 289 289 290 290 289 289 289 289 289
253 253 253 254 255 255 254 255 255 255 256 256 255 255 256 256 257 256 255 255 255 256 255 256 256 256 257 257 259 259 261 262 262 263 264 265 266 262 260 261 261 261 261 262 262 262 262 262 263 263 263 263 264 264 265 265 266 266 267 268 268 269 269 271 273 275 277 280 282 283 284 285 286 287 288 288 288 289 290 290 289 289 289 289 288
253 253 253 254 254 254 253 253 254 254 254 253 253 253 254 253 255 254 254 253 254 254 254 254 256 254 253 254 258 258 258 259 260 259 260 260 260 259 259 260 261 260 260 261 261 261 261 262 262 262 263 263 263 264 264 265 265 265 266 266 267 268 270 270 272 273 276 278 280 282 283 284 286 287 288 288 288 288 289 289 289 289 289 288 289
252 252 253 254 254 253 252 252 252 252 251 252 252 253 253 253 253 252 252 251 251 252 253 253 253 253 253 255 255 257 257 255 255 255 256 257 258 258 258 259 259 259 260 260 260 260 260 261 261 262 262 263 263 263 264 264 265 265 265 265 266 267 268 268 269 271 273 277 280 279 278 279 281 285 287 288 288 289 289 289 289 289 289 288 289
251 251 252 253 252 253 252 252 251 251 251 251 251 251 251 252 251 251 251 251 251 252 252 252 252 252 253 254 255 256 255 254 254 255 255 256 256 257 257 258 258 258 258 258 259 259 260 260 261 261 262 262 263 263 264 264 264 264 265 265 265 265 266 267 268 270 272 275 276 276 276 276 277 280 285 288 288 289 289 289 289 289 289 289 289
250 250 251 252 252 251 251 251 250 250 250 250 250 250 250 252 251 251 250 251 251 251 252 252 251 252 253 255 257 257 255 254 254 254 254 255 256 256 256 256 257 257 257 258 258 259 259 260 260 261 261 262 262 263 263 263 263 264 264 264 264 265 265 267 268 269 271 272 273 272 272 273 275 276 279 285 288 288 289 289 289 289 289 289 289
249 250 250 250 251 250 250 250 249 250 249 250 250 250 251 251 250 250 251 251 251 251 251 251 251 252 254 255 256 256 254 253 254 254 254 255 255 255 256 256 256 256 257 257 258 258 259 259 260 260 260 261 262 262 263 263 263 263 263 263 263 264 264 265 266 268 269 270 270 270 270 271 273 275 278 283 287 288 289 289 289 289 289 289 289
249 249 249 250 250 249 249 248 249 248 249 249 250 251 251 250 249 250 250 250 250 251 251 251 251 252 252 254 254 255 253 252 254 253 253 254 254 255 255 255 256 256 256 257 257 258 258 258 259 259 260 260 261 262 262 262 263 263 263 263 263 263 264 265 266 266 267 268 268 269 269 270 271 273 275 279 285 288 288 289 288 289 289 289 289
247 248 249 249 248 248 248 247 248 249 248 250 250 250 250 249 249 248 248 249 249 250 250 250 251 251 251 252 252 252 251 252 252 252 253 254 254 254 254 255 255 256 256 256 257 257 258 258 258 259 260 261 262 262 262 263 263 263 263 263 263 263 263 264 264 265 265 266 267 268 268 269 270 272 274 277 281 287 287 288 288 288 288 289 289
247 247 248 247 247 247 247 247 248 248 249 248 246 247 249 247 248 248 249 248 249 250 250 250 250 250 250 250 250 251 251 251 252 253 253 253 253 254 254 254 255 255 255 256 256 257 257 257 258 258 259 260 261 261 261 262 263 263 263 263 263 263 263 263 264 265 266 267 267 266 267 268 268 269 271 275 279 284 288 288 288 287 288 288 288
246 246 247 246 246 247 247 247 248 246 246 246 246 246 247 247 247 247 248 249 249 249 249 249 250 250 250 250 250 251 251 251 251 252 253 253 253 253 254 254 254 255 255 255 256 256 256 257 257 258 258 259 259 260 261 262 263 263 263 264 264 263 264 264 265 265 266 267 266 266 267 267 268 269 271 273 276 281 287 288 288 288 288 288 288
244 245 246 245 246 246 246 247 246 247 246 246 246 246 247 247 247 248 248 249 249 249 249 249 249 249 249 249 250 250 251 251 251 252 252 252 253 253 253 253 254 254 255 255 255 256 256 256 257 257 257 258 259 260 261 262 262 263 263 263 263 264 264 264 266 266 266 266 267 266 266 266 267 268 270 272 276 281 286 288 288 288 288 288 288
244 245 244 246 245 245 245 245 246 247 245 246 246 247 247 247 247 247 247 247 248 248 248 248 248 248 249 249 250 250 251 251 251 252 252 252 252 253 253 253 253 254 254 254 255 255 256 256 256 256 257 258 259 259 260 261 262 262 262 263 263 263 264 266 266 266 266 266 266 266 266 265 266 267 269 271 274 280 285 287 288 288 288 288 288
244 245 244 245 245 245 244 245 245 244 244 245 245 245 246 246 246 246 246 247 247 247 247 247 248 248 248 249 250 250 251 251 251 251 251 252 252 252 252 253 253 253 253 253 254 255 255 256 256 256 257 257 258 259 260 260 261 261 262 262 263 266 266 266 265 265 266 266 265 265 265 265 266 267 269 272 275 281 286 287 288 288 288 288 288
243 244 243 244 244 244 244 243 243 242 243 244 244 244 245 245 245 246 246 246 247 247 247 247 248 248 248 248 249 249 250 250 250 251 251 251 252 252 252 252 252 252 253 253 254 255 255 255 255 256 256 257 258 259 259 260 260 261 261 262 265 265 265 265 266 266 265 265 264 265 265 265 266 267 269 273 278 283 285 286 287 287 288 288 288
243 243 243 243 243 243 243 242 243 243 242 244 243 244 244 244 244 245 245 246 246 246 247 247 247 247 248 248 249 249 250 250 250 251 251 251 251 251 251 251 252 252 252 253 254 254 255 255 255 256 256 257 257 258 259 260 260 261 263 265 264 264 264 265 264 265 265 265 264 265 265 265 266 267 270 274 279 283 285 286 287 287 287 288 288
Wind_Speed
8 6 7 7 8 8 7 7 7 6 8 7 8 7 6 6 6 5 4 6 5 5 6 6 6 6 5 6 7 7 7 7 6 6 6 7 6 6 6 7 6 6 6 8 7 8 8 8 8 7 7 8 7 6 6 6 6 6 6 7 9 9 10 11 14 14 8 4 8 10 5 3 3 5 7 8 8 6 5 5 5 6 6 5 5
7 7 6 6 8 7 7 6 6 6 7 7 8 7 6 6 6 5 6 6 6 6 6 5 5 6 6 6 6 6 6 6 7 6 7 7 7 6 7 8 7 6 6 6 7 7 7 8 8 8 8 9 9 8 7 7 7 7 7 7 8 9 8 11 13 13 15 4 5 2 3 3 7 3 7 8 9 5 5 5 5 6 6 5 5
6 6 7 7 7 6 6 6 6 7 8 7 7 6 6 6 5 6 6 6 6 6 6 6 6 6 6 6 6 6 7 6 6 7 7 8 8 7 7 8 8 8 8 8 8 8 8 7 8 8 8 9 9 8 8 8 7 8 9 7 8 9 10 11 12 13 12 8 6 9 5 4 7 8 6 6 4 2 5 6 7 4 5 5 5
6 7 7 7 6 6 7 5 7 7 8 6 7 6 5 5 5 5 5 5 6 6 6 6 6 6 6 6 7 6 7 6 6 6 8 8 8 8 7 7 7 8 8 8 9 8 8 9 9 9 9 9 9 9 8 8 8 8 9 9 8 9 8 7 8 9 10 11 5 5 6 5 6 5 5 3 4 5 6 5 3 6 4 4 5
6 6 7 8 6 7 6 5 6 7 7 5 6 5 5 5 5 5 5 6 5 5 6 5 5 6 7 8 7 7 7 7 6 7 8 8 7 7 7 7 7 8 8 8 8 8 8 9 10 9 9 9 9 9 9 10 9 9 9 9 9 9 8 8 9 9 11 13 11 6 5 5 5 3 2 4 5 4 3 5 5 4 4 4 3
5 6 5 8 6 7 5 5 6 5 5 5 5 5 5 5 5 5 5 5 5 5 5 5 5 6 6 6 6 7 6 6 6 9 8 8 8 7 7 7 7 7 7 7 7 7 8 9 8 9 9 9 9 9 9 10 10 10 10 9 9 9 10 10 9 9 10 12 11 10 5 7 5 4 3 4 4 5 5 5 4 3 4 5 5
5 7 6 7 6 5 5 5 5 5 4 4 4 4 5 5 5 5 4 4 5 5 5 5 5 5 5 6 6 7 7 7 7 8 8 8 8 8 8 8 8 7 6 7 8 8 8 8 8 7 8 9 10 11 11 12 11 11 11 11 11 10 10 10 9 10 10 11 9 8 7 3 4 8 3 2 3 3 4 4 7 6 5 6 7
6 6 6 5 5 4 4 3 4 4 4 4 4 4 4 4 5 4 4 5 6 6 5 5 5 4 5 4 5 6 6 6 7 8 9 8 8 8 8 8 9 8 7 7 8 8 8 8 8 9 9 8 9 10 10 10 10 11 9 9 10 10 10 10 9 9 10 10 10 9 5 5 2 1 3 1 1 3 5 7 10 8 7 4 6
6 6 5 6 4 3 3 3 3 3 4 4 5 5 5 4 4 4 4 5 4 4 4 4 4 5 4 5 5 4 5 5 6 9 9 9 9 8 8 8 9 8 8 8 7 7 8 8 8 8 10 12 13 12 11 11 8 10 11 10 10 10 10 9 9 9 9 9 10 7 7 7 4 3 3 3 6 10 4 5 8 7 4 3 5
6 5 5 5 4 3 3 3 3 3 3 4 4 4 4 5 5 6 6 5 5 5 5 4 4 5 4 4 4 4 4 4 8 13 11 8 8 7 7 8 8 8 9 9 8 8 8 8 8 11 13 13 13 12 12 13 14 11 10 10 11 11 11 10 10 8 9 11 10 9 10 10 6 6 7 7 7 5 3 4 7 7 2 5 4
5 5 5 3 3 3 3 3 3 5 3 4 3 3 4 3 4 5 5 5 6 6 5 6 6 6 5 5 5 4 4 4 11 12 12 13 9 8 8 8 7 7 7 8 9 10 9 9 9 10 10 10 10 14 14 15 14 15 16 15 13 12 12 13 11 9 9 10 10 10 10 12 10 5 7 8 5 7 8 5 7 4 5 7 9
5 5 3 3 3 4 4 4 5 5 4 5 4 3 3 4 5 4 4 5 5 4 5 5 5 5 5 5 4 5 4 8 12 13 13 14 11 8 7 6 7 7 7 8 8 8 9 9 8 7 7 9 10 11 12 14 14 16 16 16 16 17 16 13 12 11 10 11 11 10 9 11 12 6 6 4 7 7 7 6 7 9 9 8 5
5 4 3 3 3 3 3 4 4 4 4 4 4 4 6 6 7 7 6 5 3 5 5 5 5 4 4 5 4 4 4 9 12 14 14 14 15 11 6 7 7 8 7 7 7 7 7 8 8 8 7 12 10 10 10 11 13 15 15 16 15 15 15 17 16 14 11 12 12 12 10 9 11 9 5 6 5 8 5 5 7 7 9 8 8
4 4 3 2 2 2 3 4 5 4 3 3 3 4 6 6 5 4 4 5 5 5 5 6 6 5 5 5 4 3 3 8 13 14 13 14 15 12 6 7 6 7 6 7 7 7 7 7 8 8 8 9 8 10 10 10 11 12 11 11 11 12 14 15 17 18 16 11 11 14 13 9 13 11 6 5 6 9 8 9 8 8 9 13 7
4 3 3 2 2 1 2 2 4 4 3 2 3 4 4 3 4 4 4 5 5 6 6 7 6 6 6 6 5 5 4 11 13 14 14 15 16 12 6 6 6 6 6 6 7 7 7 7 8 8 9 9 8 11 11 12 12 11 11 11 12 11 11 11 10 10 10 10 11 12 12 11 12 13 11 8 10 10 10 12 11 10 5 0 1
4 4 4 3 2 1 0 2 3 3 4 3 4 4 3 4 4 3 3 3 3 3 3 3 5 6 6 6 6 6 5 12 13 13 14 15 16 8 7 8 7 7 7 7 7 7 6 7 7 9 9 9 11 16 15 13 12 13 13 12 12 11 11 10 14 15 14 13 13 13 11 12 13 12 10 9 8 7 7 3 1 2 3 5 7
5 4 4 3 3 2 1 0 2 3 4 4 4 3 3 3 3 3 3 3 3 3 3 3 4 5 6 6 6 7 5 10 13 12 13 15 12 7 8 7 8 8 8 8 8 8 8 8 8 9 9 9 13 20 20 17 11 12 14 14 12 11 12 10 12 15 17 20 21 21 22 21 20 20 18 17 10 8 4 4 5 4 5 7 6
6 5 4 4 3 2 2 1 0 2 3 4 4 3 3 2 3 3 3 3 3 3 3 3 3 4 5 5 6 6 6 9 11 11 13 14 13 8 8 8 9 8 8 8 8 9 10 14 12 10 10 11 17 21 21 16 12 12 13 14 16 13 12 10 9 11 14 17 19 19 19 18 18 18 18 17 15 9 7 9 6 6 9 9 8
6 5 4 3 3 3 2 2 2 2 3 4 4 4 3 4 3 3 3 2 3 3 3 3 3 3 4 4 7 6 6 7 9 10 12 12 10 7 7 8 9 9 10 10 9 8 9 9 13 13 12 14 21 20 22 17 13 12 12 15 16 15 12 12 12 12 12 13 13 12 12 12 10 9 10 16 16 12 10 11 6 8 9 8 8
6 6 5 5 4 4 3 3 2 2 4 3 4 4 3 3 4 4 4 4 4 3 3 3 3 3 3 4 4 5 5 4 5 10 9 10 11 7 6 7 8 10 10 10 12 11 10 10 11 14 18 19 20 21 20 22 15 13 12 13 16 17 12 11 13 13 14 14 13 13 13 13 11 9 7 7 8 9 11 11 9 9 10 9 8
7 6 5 5 4 4 4 3 3 4 4 3 3 3 4 4 4 4 4 4 4 4 4 4 4 4 3 3 4 3 4 4 5 10 9 9 11 10 6 7 7 8 9 10 9 10 11 11 10 13 20 21 21 22 22 22 21 15 12 12 13 16 18 14 16 15 13 14 13 12 12 11 10 9 8 7 7 7 8 10 10 10 10 10 8
7 6 5 4 4 4 4 4 3 4 3 3 4 5 4 4 3 3 3 3 4 4 5 5 5 4 4 4 3 3 4 6 5 8 10 11 12 13 7 7 8 9 10 9 9 9 9 10 10 16 23 23 24 24 25 23 24 15 15 20 25 26 17 13 12 11 11 12 11 11 11 10 10 9 9 9 8 8 9 9 9 10 10 10 11
4 3 3 3 4 4 4 6 5 5 5 5 5 5 4 3 3 3 4 3 4 4 4 5 5 5 5 3 3 4 4 4 8 7 11 13 13 12 13 10 14 9 9 10 10 11 10 11 12 17 23 26 25 26 25 26 21 15 24 24 25 24 19 11 10 10 10 11 11 11 10 10 10 10 9 9 8 8 9 9 9 10 10 11 11
4 4 4 5 6 6 6 6 7 6 6 5 4 5 5 4 3 3 3 3 3 4 4 5 5 5 6 6 5 5 5 5 7 10 10 14 14 14 14 15 15 10 10 9 10 11 11 11 13 24 26 26 26 25 25 24 17 23 24 25 23 20 12 11 9 9 10 11 11 11 11 10 10 11 10 9 9 9 10 10 10 11 11 11 12
7 7 7 7 7 6 6 6 6 6 5 5 5 5 4 4 4 3 4 4 4 4 4 5 5 6 6 7 7 6 6 6 6 9 13 13 15 15 16 17 15 15 11 9 9 10 15 22 24 23 24 26 27 25 19 18 19 19 20 21 19 11 10 9 9 9 10 11 10 11 11 11 11 12 11 9 9 8 6 6 7 8 7 7 6
8 8 8 7 8 7 7 6 6 6 6 5 4 4 3 4 3 3 4 3 4 4 5 5 5 6 6 7 7 8 8 7 8 8 9 11 12 16 18 16 15 16 15 12 16 20 20 22 25 24 21 18 14 12 11 13 18 20 20 18 11 9 9 9 9 9 10 10 10 11 11 11 11 11 11 9 8 8 8 8 7 7 6 7 6
7 8 9 8 9 7 8 7 7 6 6 5 4 4 3 3 3 3 3 3 3 3 4 5 5 6 6 7 8 8 8 8 8 8 9 10 11 12 12 12 15 15 10 10 12 11 15 16 15 19 17 21 20 17 15 14 12 11 9 9 8 9 9 9 9 11 11 10 10 11 11 11 11 10 10 9 9 9 7 8 8 8 7 7 8
7 7 7 7 7 7 7 9 8 6 6 6 5 5 4 4 4 4 3 3 2 2 3 4 4 6 6 7 6 5 6 7 8 9 9 10 10 11 11 11 11 11 12 11 12 13 13 14 15 10 8 8 9 8 9 10 10 10 9 9 9 10 11 14 13 10 10 10 11 11 10 10 10 11 10 9 10 9 7 8 9 8 7 6 5
7 8 7 6 6 7 6 6 6 6 6 5 4 3 4 4 4 4 4 0 1 2 3 3 5 5 6 5 6 6 6 6 7 12 13 17 15 13 11 10 11 10 13 20 16 13 11 10 9 10 10 11 11 11 11 11 12 12 13 11 10 10 9 9 10 10 10 9 10 11 11 10 11 10 10 10 10 9 7 9 8 8 6 7 10
7 7 7 7 6 7 6 6 5 5 5 6 6 5 6 7 5 4 3 8 11 9 7 4 5 6 6 5 6 7 7 9 16 20 20 21 21 21 20 20 19 16 19 23 14 10 9 9 9 10 10 10 10 11 12 12 13 14 13 13 11 10 10 10 10 10 10 10 10 11 10 11 11 11 10 11 10 9 9 10 9 8 8 9 9
6 5 6 6 8 7 6 5 5 5 5 5 6 6 6 5 10 10 10 10 9 10 9 10 13 13 9 7 8 13 15 16 18 20 21 21 21 21 20 19 19 19 19 13 8 7 8 8 8 8 8 9 9 10 10 11 12 13 14 13 13 12 12 11 10 10 10 11 11 11 10 10 11 11 11 10 11 10 8 8 8 7 9 9 9
6 5 5 6 7 7 6 6 5 5 4 4 5 5 6 6 5 8 12 11 11 12 11 12 14 14 15 13 10 7 11 16 20 21 21 22 21 20 20 19 18 17 16 13 7 7 7 8 9 8 8 9 9 9 9 10 11 11 12 14 14 13 13 12 12 12 12 12 11 11 11 11 11 11 11 11 10 10 9 8 8 8 8 8 9
6 6 6 6 6 6 5 5 5 5 5 5 5 5 5 6 7 7 7 10 12 13 14 14 15 16 16 15 15 14 15 17 20 20 21 21 21 20 20 18 16 15 13 7 6 7 7 7 8 8 8 9 10 9 10 10 11 12 11 12 14 14 13 15 16 14 13 12 11 12 11 11 11 11 11 10 10 10 9 9 9 8 9 9 9
6 6 6 6 6 5 5 6 6 5 5 6 5 6 5 5 5 6 7 6 6 7 9 12 14 15 15 16 16 17 18 19 20 20 20 20 20 20 18 12 13 13 11 6 6 7 7 7 8 8 9 9 9 10 11 10 10 11 12 12 13 13 14 15 14 14 13 12 11 11 11 11 11 12 11 10 10 10 10 9 9 9 9 9 9
6 6 8 7 5 5 5 6 5 5 5 5 5 5 5 5 5 5 6 7 7 7 6 7 9 13 11 11 15 18 18 19 20 20 20 20 20 21 16 8 8 7 6 5 6 7 7 8 9 9 9 10 10 10 11 11 10 12 12 13 13 14 14 14 14 14 13 12 12 12 12 12 13 12 12 11 10 9 9 9 9 10 10 10 9
6 6 6 6 6 5 5 5 5 5 5 4 5 5 5 5 5 5 6 6 5 6 6 6 6 8 12 11 15 17 18 19 19 19 18 19 19 19 10 9 8 7 7 6 7 7 7 8 8 9 9 10 10 10 10 11 11 11 12 12 14 14 14 14 15 15 15 14 14 14 14 12 12 12 12 11 12 12 10 10 10 10 10 10 9
6 5 5 6 5 5 5 5 4 5 5 5 5 3 4 4 5 4 5 4 5 5 6 7 7 7 7 6 12 15 17 17 17 16 16 17 18 11 6 8 8 9 8 8 8 8 8 7 8 9 8 10 10 10 10 10 11 12 13 12 12 13 14 13 15 16 16 14 14 14 14 14 13 12 12 12 11 10 10 10 10 10 10 12 11
6 6 5 6 5 4 4 4 4 6 4 3 3 3 3 3 4 4 5 4 5 5 6 6 7 7 10 11 14 10 12 14 14 10 11 12 10 7 8 8 8 8 8 8 9 9 9 8 7 8 9 9 9 9 10 10 11 11 12 13 13 13 19 18 18 16 15 14 13 14 14 15 15 13 12 11 11 11 10 10 9 9 10 11 10
5 8 10 9 7 5 3 3 4 4 3 4 4 5 5 5 4 4 4 4 4 4 5 5 5 7 7 8 8 11 13 10 10 10 10 8 8 7 7 7 7 8 8 8 9 9 8 8 10 10 9 9 10 10 9 9 11 12 12 12 13 12 13 13 14 15 15 14 12 12 13 14 15 16 13 11 11 11 10 10 10 10 10 9 10
6 5 6 10 5 6 5 5 4 4 6 4 5 4 3 4 4 5 4 5 5 5 5 6 6 6 7 7 8 9 9 9 8 8 8 8 8 8 7 7 8 9 9 9 8 9 9 9 9 8 9 9 9 10 10 10 10 11 12 12 13 14 14 13 13 14 15 14 13 14 14 15 15 17 16 12 11 10 10 10 10 10 10 10 10
5 5 5 6 6 4 4 4 5 5 4 4 4 4 4 5 5 5 4 4 5 5 5 6 6 6 6 10 16 14 8 7 7 7 8 8 8 8 8 7 8 8 8 9 9 9 9 9 9 9 9 10 10 10 10 10 11 11 12 12 12 13 14 13 13 14 14 13 13 14 14 15 16 16 17 14 11 11 11 10 9 9 9 9 10
5 4 4 4 5 3 4 5 5 5 4 5 4 5 5 6 5 4 6 5 6 6 6 6 6 6 9 17 15 17 9 6 6 7 7 7 7 7 7 7 7 7 8 8 9 9 10 10 10 10 10 11 11 11 10 10 11 10 11 12 13 14 14 13 13 14 14 13 13 14 15 16 17 17 18 17 12 10 9 9 9 9 9 9 9
5 4 4 4 4 4 4 4 4 4 5 5 5 5 5 5 4 5 5 5 5 6 5 7 7 7 8 12 14 14 6 6 6 7 6 7 7 7 7 7 7 8 8 8 8 8 9 10 10 9 9 11 11 10 11 11 10 10 10 11 12 14 14 14 13 14 13 13 14 16 17 16 16 15 16 16 14 9 9 9 8 8 9 9 9
4 4 4 3 3 2 3 3 4 4 3 5 5 5 5 5 4 4 5 5 5 5 5 6 6 7 8 9 9 7 7 7 7 7 7 7 7 7 7 7 8 8 8 8 8 8 9 10 10 10 10 10 10 11 10 10 10 11 10 11 12 14 14 14 14 14 14 14 15 17 17 17 17 15 16 16 16 12 8 9 9 9 9 9 9
3 4 3 3 3 4 4 3 4 4 5 5 4 4 5 4 5 5 4 5 6 5 4 5 6 6 8 8 8 8 8 7 8 8 8 8 8 8 7 8 8 9 9 8 8 9 9 9 10 10 11 10 10 11 11 10 10 10 11 12 13 13 13 14 14 14 14 14 15 17 16 16 16 16 16 16 16 15 10 9 9 9 9 9 9
3 3 4 3 4 5 5 4 5 4 4 5 5 5 5 4 4 4 6 5 6 5 6 6 6 6 7 7 7 8 8 8 8 8 8 8 8 8 8 8 8 9 8 8 8 9 9 9 10 10 11 11 11 11 11 11 11 11 11 11 11 12 12 12 13 13 13 12 15 16 16 17 16 16 18 17 16 16 13 9 8 9 10 10 10
3 2 3 4 4 5 5 5 4 5 5 5 4 5 5 5 5 6 6 7 7 7 6 6 6 6 7 6 7 7 8 8 8 8 8 9 9 9 8 9 9 9 9 9 9 9 9 9 9 10 11 12 12 12 11 11 10 10 11 11 11 13 12 11 12 13 14 14 15 14 16 16 17 17 19 17 16 16 14 10 9 10 10 10 10
3 4 3 4 4 5 5 5 6 6 6 6 5 6 6 6 6 6 6 7 6 6 6 6 5 6 7 7 7 7 7 7 7 8 8 8 8 9 9 9 9 9 9 9 9 9 9 9 10 10 11 12 12 12 12 12 11 11 11 11 11 13 17 21 16 16 14 14 14 16 17 16 16 16 17 18 17 16 13 9 8 8 9 9 9
4 5 5 5 5 5 5 5 6 5 5 5 5 5 6 5 5 5 5 5 5 5 5 6 7 6 6 7 7 7 7 8 8 8 8 8 8 9 9 9 10 10 9 9 9 9 10 10 10 10 11 11 12 12 12 13 13 12 13 13 16 25 28 30 22 17 22 18 15 16 16 16 17 17 18 17 17 16 12 9 9 8 8 9 9
4 4 4 4 4 4 5 4 3 3 4 4 4 5 5 5 5 6 6 6 6 6 5 5 6 6 7 7 8 8 8 8 8 8 8 8 8 9 9 10 10 10 9 10 10 10 9 10 10 11 11 12 12 12 13 13 13 14 13 15 26 32 31 32 29 28 22 14 16 15 16 16 17 16 15 15 15 15 12 9 8 8 9 9 10
4 3 3 2 3 3 4 4 5 5 5 5 5 5 5 6 5 5 5 6 6 7 6 6 6 7 7 7 7 7 8 8 8 8 8 8 9 9 9 10 10 10 10 10 10 10 10 10 10 11 11 12 12 12 12 12 12 14 21 30 32 32 31 28 22 27 33 26 16 15 15 16 16 16 15 14 13 13 10 8 7 7 8 9 9
Wind_Direction
91 91 93 86 86 79 75 71 67 67 67 61 62 54 48 43 40 32 28 36 22 21 26 22 17 14 14 17 16 10 7 3 1 13 16 13 9 1 357 357 353 346 342 341 343 341 336 328 323 316 309 299 289 282 275 271 264 262 259 265 265 265 269 272 271 280 277 219 261 262 259 216 267 204 247 256 259 242 216 236 246 244 247 216 220
102 105 92 90 87 85 81 77 75 73 72 61 60 52 44 38 32 22 35 26 22 19 20 15 16 15 21 16 15 8 5 3 9 15 15 13 11 5 358 356 352 351 353 348 348 345 338 332 328 324 322 314 311 302 291 282 274 268 266 263 265 267 260 268 273 275 286 254 251 303 284 207 259 191 227 242 250 247 243 249 242 227 233 217 220
104 101 95 90 86 86 85 79 79 74 72 64 61 55 48 41 30 33 28 21 18 21 12 14 13 17 21 19 10 10 4 4 7 15 16 11 6 5 2 357 352 349 348 345 343 339 340 339 334 332 330 323 317 310 308 300 292 284 280 274 276 274 267 259 264 270 277 285 287 284 269 249 234 258 243 257 279 271 251 251 251 249 232 219 216
104 98 97 90 89 86 79 79 75 71 69 62 62 53 50 43 36 39 34 21 23 15 15 11 14 15 20 15 14 5 5 2 4 9 16 12 8 1 359 356 352 347 343 340 338 341 342 338 338 337 331 325 321 317 312 306 302 299 294 290 285 285 279 279 268 282 292 290 279 247 270 256 266 250 264 285 255 257 237 261 229 231 215 210 221
111 105 103 98 84 83 78 73 79 74 75 70 67 60 52 49 38 38 33 31 24 18 16 14 18 19 16 10 4 6 2 359 355 16 19 9 1 357 356 357 351 345 340 338 339 338 337 337 333 335 330 325 322 320 319 314 309 306 301 300 298 295 293 289 289 289 290 287 289 269 256 258 262 287 261 257 270 263 278 251 250 248 231 220 215
118 113 111 99 90 85 84 79 74 74 75 72 68 61 58 48 47 42 36 32 28 25 20 16 20 19 11 8 6 6 3 356 13 20 6 360 359 356 353 350 349 342 336 332 332 332 331 330 330 329 330 327 323 322 323 321 318 311 305 303 299 297 298 294 289 288 284 285 287 293 267 263 278 263 235 215 247 272 290 282 312 284 244 242 228
101 93 83 86 87 79 82 82 86 84 77 73 66 64 58 51 46 40 31 36 35 24 17 18 14 22 7 10 11 9 9 13 22 10 2 357 357 351 348 347 343 342 336 331 331 334 331 327 324 324 326 331 328 327 325 320 317 312 312 311 307 305 301 297 295 292 290 292 293 287 293 257 232 271 277 237 212 212 246 289 273 235 234 227 239
101 99 98 91 90 89 77 76 76 79 83 79 74 69 62 57 51 44 40 38 32 24 13 12 6 14 8 15 8 11 12 17 15 5 358 355 353 349 346 344 338 335 334 332 335 332 329 329 327 327 328 325 319 315 313 312 309 305 303 302 299 297 294 294 292 288 287 287 284 291 280 287 329 346 335 357 330 298 223 230 254 253 241 226 237
113 118 116 112 115 118 114 96 86 84 73 67 60 51 50 51 49 47 46 41 32 22 15 8 15 15 13 12 9 7 19 16 13 359 354 353 352 346 345 340 336 334 334 333 327 330 333 329 324 322 314 304 295 290 291 295 301 305 305 305 302 298 294 290 288 288 284 284 286 281 283 278 239 217 243 232 229 241 240 198 251 258 267 256 256
108 105 102 108 114 114 113 104 98 93 76 69 65 58 53 47 41 38 33 27 21 15 15 12 20 16 12 12 11 11 14 14 352 355 355 351 347 346 343 340 338 337 333 331 332 333 330 328 322 314 310 305 299 297 303 307 304 299 299 304 302 299 295 292 287 283 283 282 280 285 282 276 257 223 239 236 237 266 290 230 240 258 263 267 285
93 98 102 90 86 85 86 82 86 73 69 74 70 67 60 60 60 54 41 29 18 11 5 9 12 1 5 1 3 7 4 350 352 356 355 353 350 345 342 341 339 336 333 335 334 330 328 327 322 318 313 313 317 318 311 306 304 303 303 299 292 290 295 290 283 285 284 279 280 277 276 278 274 243 233 242 225 231 238 229 240 255 236 245 257
107 101 99 89 73 71 67 60 58 49 46 45 45 50 57 58 54 49 44 33 24 14 12 11 359 352 353 353 354 349 347 339 352 353 354 353 351 347 341 339 337 336 336 332 326 324 321 321 321 319 318 319 318 315 309 304 304 303 302 300 298 292 281 272 280 281 276 281 279 275 278 274 279 251 241 232 246 246 239 229 227 227 236 232 233
101 99 87 82 79 80 78 75 69 56 42 36 32 34 38 39 34 27 25 11 9 16 8 2 356 349 346 348 348 338 341 331 348 350 349 350 350 351 345 340 335 332 323 317 315 317 315 315 316 320 321 319 315 312 310 311 309 305 301 299 295 289 289 284 271 260 269 268 273 274 271 283 279 265 215 218 215 239 231 229 236 234 234 239 234
92 98 88 76 68 83 96 99 94 80 60 50 42 45 48 43 30 16 4 5 11 6 1 357 348 347 343 339 332 331 329 330 346 346 346 346 349 350 338 332 323 317 315 313 314 309 310 312 314 315 316 318 313 312 313 310 309 310 311 308 300 295 291 284 282 276 264 254 260 266 271 268 273 280 261 234 234 237 222 232 229 231 230 230 240
71 62 72 61 51 48 79 99 106 102 93 79 61 57 54 47 40 15 20 7 3 357 353 347 339 334 332 329 328 334 331 338 345 344 345 346 346 348 335 331 324 316 313 309 304 304 306 310 310 309 312 313 312 313 314 313 312 309 304 302 300 299 293 290 288 284 280 266 256 258 265 260 262 268 272 255 238 243 230 236 232 231 243 34 41
63 51 48 36 26 6 64 125 117 111 105 95 79 64 52 44 42 13 28 3 355 346 343 328 324 322 320 322 324 327 330 339 340 342 345 347 346 344 343 335 329 320 313 308 305 303 304 307 311 308 308 309 309 313 314 316 315 312 308 302 300 297 290 284 281 280 277 276 274 271 268 265 262 263 267 269 262 258 268 290 68 125 178 221 234
54 43 35 21 6 355 333 317 122 117 111 99 83 69 58 36 36 9 31 1 0 352 329 323 312 314 314 316 317 315 328 328 334 341 347 347 348 345 339 333 325 320 316 315 315 315 315 316 313 310 308 308 309 317 320 323 316 312 310 306 302 298 295 295 287 283 282 278 273 270 271 272 272 274 272 266 256 245 236 235 231 177 197 228 235
38 30 24 10 350 341 344 339 34 93 95 86 76 62 54 45 37 9 22 350 352 335 314 315 310 302 308 311 308 310 320 317 329 343 346 347 348 342 333 329 322 319 320 323 323 317 314 314 314 312 311 307 314 319 321 323 314 310 311 310 307 302 295 297 299 293 288 284 281 278 275 274 273 271 270 266 256 228 201 230 218 180 221 221 230
17 9 0 360 343 335 353 356 12 39 72 69 68 56 34 25 5 7 1 342 331 313 315 310 302 300 288 289 297 301 301 306 332 339 342 343 344 337 332 323 325 329 328 323 320 315 313 311 309 309 310 314 318 320 319 319 311 307 308 307 305 298 293 300 301 305 311 306 298 297 290 278 269 260 259 258 253 232 220 231 214 197 224 224 225
351 347 350 351 349 348 4 5 8 34 56 62 60 45 25 29 12 8 357 349 333 332 325 308 307 300 294 292 293 291 293 306 329 333 337 336 338 337 326 333 329 325 324 322 319 318 315 311 310 312 316 317 318 317 316 313 310 304 303 301 300 295 297 300 295 296 295 290 291 291 285 284 278 272 267 263 257 232 228 229 225 214 225 230 217
344 344 342 346 346 349 357 4 12 36 37 42 60 53 36 32 9 8 353 347 343 334 329 325 319 312 302 292 291 297 299 315 320 332 332 334 338 344 338 334 325 321 318 314 312 309 311 313 310 311 314 315 317 315 313 310 307 301 294 287 282 286 294 293 291 290 286 287 285 284 284 280 272 264 263 259 250 239 232 233 229 222 223 230 222
338 333 334 336 341 343 360 360 6 30 16 25 50 50 41 38 13 6 357 355 350 336 330 324 322 321 313 309 304 312 315 318 314 326 335 342 345 342 337 326 325 321 315 307 305 301 300 302 304 309 313 313 313 312 311 310 308 303 288 287 290 292 291 288 286 287 283 282 283 282 281 277 275 265 256 252 248 237 231 229 231 232 228 231 224
315 310 317 336 350 351 355 6 12 21 12 13 37 43 31 29 14 21 15 14 4 351 343 332 330 329 330 337 336 317 315 305 329 333 341 342 337 336 334 331 329 325 313 307 305 301 299 297 295 301 308 309 310 310 309 309 307 293 294 295 294 291 290 285 282 279 276 275 278 278 278 276 274 270 256 250 243 232 232 225 227 227 230 235 239
332 342 356 360 2 355 0 4 15 16 13 11 28 40 27 23 20 20 18 14 15 5 355 347 341 341 338 336 334 330 329 331 335 342 339 336 331 330 330 330 329 322 315 303 301 298 298 299 302 306 307 306 306 307 307 305 296 297 298 295 291 288 286 284 278 275 273 274 273 274 274 270 268 266 259 245 242 228 225 223 225 228 227 231 235
352 360 3 1 2 359 359 6 13 12 5 12 26 31 25 24 24 7 30 18 24 13 356 355 348 339 338 333 332 333 333 335 337 337 333 328 329 330 331 329 327 326 318 302 295 295 297 300 302 303 303 302 303 302 298 292 291 291 291 290 290 289 284 279 279 278 276 273 273 274 271 268 262 262 262 252 243 237 235 240 235 235 237 242 247
2 1 359 359 358 356 2 5 12 5 3 9 22 24 33 22 30 12 35 22 25 13 359 353 345 338 334 331 331 329 333 337 335 332 331 330 329 330 331 330 328 324 315 303 302 304 305 306 304 302 300 297 294 295 297 296 296 293 291 288 283 278 274 279 278 277 273 274 273 271 272 275 271 266 260 251 245 239 228 230 226 229 216 220 223
10 5 0 354 352 356 6 5 3 358 357 2 9 18 16 27 28 26 36 38 21 1 356 348 340 332 330 326 324 328 332 332 330 328 332 331 332 332 332 331 328 325 322 316 314 307 307 306 301 300 290 286 283 281 285 292 297 297 298 291 282 278 281 281 282 283 280 277 275 273 273 272 273 273 264 249 243 240 221 227 224 227 207 213 212
14 4 358 357 344 354 359 360 0 354 351 357 356 2 7 10 17 3 2 349 4 337 329 320 320 326 314 303 314 328 329 328 328 324 327 330 330 330 329 328 327 328 324 319 316 313 310 307 303 295 295 304 309 317 315 310 304 304 303 302 297 290 285 280 277 273 271 271 272 274 275 275 270 266 261 250 244 238 218 217 219 222 208 200 207
15 11 4 358 344 357 355 354 350 352 342 350 346 346 346 349 352 346 351 344 294 282 289 310 318 292 285 316 340 330 327 327 318 322 324 328 328 327 327 325 323 320 318 318 318 314 310 306 314 328 336 332 332 328 326 323 320 316 311 307 305 302 297 297 294 292 291 289 287 285 284 280 273 266 259 252 244 236 213 220 217 217 211 201 211
17 13 9 358 348 356 352 349 345 351 343 343 345 344 356 357 358 359 348 8 354 337 331 314 317 340 350 355 347 330 324 315 319 327 327 327 326 324 322 322 322 321 321 324 323 311 312 321 330 332 331 333 328 327 327 328 324 322 318 314 308 302 300 296 292 293 292 291 289 288 285 280 276 269 260 253 249 236 220 209 216 205 204 200 215
4 10 7 358 356 350 343 339 343 348 335 340 339 345 342 359 10 16 18 1 349 350 356 355 356 354 349 338 332 326 319 323 329 328 327 327 326 326 325 326 327 327 329 331 333 325 321 326 325 327 325 324 322 321 323 322 321 319 317 316 312 307 304 299 299 299 297 296 295 290 287 280 275 272 264 255 248 238 228 217 217 202 207 204 207
355 359 1 348 351 349 346 346 345 346 340 341 342 352 360 351 352 7 4 359 359 2 2 1 359 356 351 345 338 329 333 332 330 329 328 329 328 329 330 332 333 333 336 345 334 326 327 325 322 323 326 325 321 318 317 315 315 317 317 315 311 310 308 305 306 304 299 295 293 291 288 286 281 275 266 257 247 241 228 217 211 209 208 209 211
344 348 354 350 351 343 343 345 344 344 338 348 348 5 4 6 352 341 355 358 357 0 359 359 357 353 350 347 345 341 335 332 331 330 331 329 331 332 335 340 338 340 350 357 334 328 329 324 320 319 321 317 316 315 313 313 312 311 311 309 308 308 306 305 305 296 293 291 291 290 290 287 284 277 268 259 247 241 230 219 210 207 208 210 212
339 345 348 347 351 344 350 346 346 343 346 351 356 4 0 355 342 343 338 343 356 353 354 356 354 349 348 347 345 341 337 334 333 333 333 335 336 338 345 344 342 352 2 351 341 330 326 323 321 320 318 315 315 313 311 312 311 310 307 303 303 305 304 305 302 300 298 296 294 292 291 288 283 280 272 259 247 240 230 220 211 205 207 210 209
344 337 346 353 353 348 351 345 339 336 349 354 357 355 348 348 353 352 353 352 344 343 335 342 346 348 347 346 343 341 338 337 337 335 337 339 342 347 352 346 351 348 354 345 344 334 330 328 322 320 319 316 315 315 311 309 308 308 309 307 305 305 307 309 305 302 299 298 297 295 292 289 286 279 272 264 252 239 232 221 214 208 209 206 206
346 342 347 354 360 354 349 342 340 348 348 348 356 348 346 348 353 357 359 350 339 330 327 333 331 336 345 347 346 343 340 341 339 339 340 343 347 356 353 346 342 341 343 341 342 332 329 322 321 319 318 313 311 310 310 307 306 306 307 306 304 305 306 307 306 305 303 300 295 296 297 291 285 281 275 263 250 242 232 224 217 211 209 208 202
344 339 344 347 353 350 344 342 339 357 356 0 347 335 343 355 2 9 1 350 340 338 329 326 330 332 343 348 351 344 343 342 341 342 345 348 352 357 344 343 335 336 336 336 334 331 326 321 316 309 308 311 311 308 309 308 308 307 307 305 303 303 302 303 305 304 300 300 303 302 300 295 290 282 271 265 256 244 234 224 219 212 208 206 198
335 340 333 340 342 342 343 331 350 356 347 356 341 347 345 5 14 7 357 349 346 338 332 336 346 344 345 339 344 343 341 339 341 346 353 354 354 350 345 336 336 332 331 329 330 326 322 314 310 308 310 307 306 308 307 307 310 309 308 306 303 300 304 305 306 306 303 298 299 310 316 311 299 287 274 260 252 246 236 224 218 214 211 207 201
337 336 339 354 357 353 340 338 343 348 351 6 355 5 357 11 5 1 354 345 337 334 338 338 343 346 339 334 330 339 343 345 356 351 346 342 339 338 333 333 332 330 326 324 322 320 312 314 316 315 309 308 306 305 304 306 313 313 311 310 308 306 310 310 310 308 305 300 308 320 316 313 310 300 282 266 252 242 235 225 215 210 204 203 203
337 333 336 351 354 355 350 352 350 359 1 1 0 4 352 6 8 356 347 345 346 344 342 343 341 341 332 331 337 344 346 342 337 335 332 330 330 333 334 334 334 328 324 320 320 315 313 309 309 306 306 304 304 304 307 309 311 312 313 310 310 309 308 308 308 309 308 312 317 318 316 313 311 310 296 270 257 245 240 227 220 208 207 203 199
330 326 332 340 355 349 347 2 3 5 356 352 354 355 2 5 358 351 345 348 340 339 338 336 331 325 328 337 341 345 339 330 326 321 321 322 323 326 327 326 322 320 319 317 317 314 311 308 308 307 307 308 306 307 308 309 311 309 309 311 309 306 306 306 307 307 308 308 312 314 312 311 309 308 304 291 260 248 240 233 222 212 208 204 197
327 321 325 326 348 353 1 6 359 351 351 352 2 0 2 359 353 349 351 346 342 340 334 333 328 326 332 340 343 343 339 318 314 312 312 315 313 314 314 313 309 307 311 312 314 313 311 310 308 310 310 310 311 310 310 308 308 307 308 310 310 309 308 307 308 309 310 308 309 310 311 309 307 301 297 295 273 253 239 229 218 215 207 203 197
319 316 323 331 351 359 3 355 345 354 360 3 1 359 360 359 352 349 342 341 341 339 339 333 328 331 333 337 338 338 330 315 314 315 309 308 309 307 307 306 305 303 303 304 305 306 308 306 305 304 305 304 305 305 309 306 302 300 301 306 310 310 307 307 307 308 308 308 308 311 311 307 304 302 301 302 288 256 237 230 223 210 207 200 197
313 316 318 333 337 346 359 3 1 359 354 360 359 352 355 353 349 347 346 344 340 339 334 328 327 330 327 332 334 335 329 325 320 313 312 309 307 308 305 305 304 306 306 306 305 307 308 308 306 303 301 301 303 306 304 299 298 301 302 301 302 307 308 307 307 306 307 307 311 313 310 307 304 301 300 300 297 272 240 228 220 211 202 200 194
313 328 330 341 349 4 2 1 2 358 356 356 357 354 352 353 349 344 343 339 332 331 327 328 329 328 327 329 331 327 321 317 313 312 309 309 307 304 306 305 307 308 308 307 307 308 308 308 307 305 306 304 304 304 302 299 299 301 301 302 301 303 305 304 300 297 300 306 310 307 304 303 301 301 298 297 298 289 260 225 216 210 204 200 191
324 325 340 354 355 2 4 1 357 359 6 356 355 346 348 344 344 341 342 336 335 334 334 333 330 327 323 319 317 316 313 313 313 310 309 308 308 307 307 309 308 308 307 306 308 307 307 307 310 310 309 306 305 304 302 302 302 300 299 296 297 296 296 291 290 296 303 304 303 303 300 299 295 294 292 293 292 288 270 239 218 206 203 198 194
322 344 349 358 5 359 359 358 351 1 2 355 355 350 345 344 341 341 342 340 336 332 329 325 325 319 317 314 313 311 313 313 310 311 308 307 307 309 309 310 311 308 309 308 308 307 308 309 310 310 308 307 305 303 303 303 301 301 300 300 296 297 292 287 296 305 308 301 299 299 299 298 296 296 295 292 289 284 268 239 224 208 205 198 194
342 348 357 357 2 8 1 1 357 355 355 353 348 344 341 340 342 340 335 333 330 325 319 316 309 309 311 310 307 306 306 303 303 303 304 306 307 310 311 311 311 312 310 309 309 308 310 310 310 309 309 310 310 309 306 304 303 305 304 301 301 296 298 306 310 308 303 303 302 300 296 292 288 287 284 285 282 282 266 238 225 211 203 198 193
348 355 360 358 3 2 356 349 351 348 339 336 337 339 336 337 331 326 318 319 317 316 313 311 311 313 311 305 306 303 304 305 306 306 308 307 309 309 310 311 311 312 312 310 309 310 311 311 310 311 310 310 309 307 307 309 308 307 305 306 300 303 310 313 311 306 311 310 303 299 293 287 284 281 280 278 278 278 262 240 222 215 206 199 194
344 348 351 347 347 336 336 331 319 318 325 329 330 330 332 333 331 330 326 323 318 317 310 307 306 306 304 307 310 310 311 310 311 309 309 310 310 310 310 312 313 313 312 311 309 310 310 310 312 311 312 310 309 308 308 308 307 306 303 299 308 314 313 312 312 313 315 310 305 299 295 288 284 278 279 278 280 277 261 235 225 213 205 198 196
335 336 330 322 323 324 330 335 341 341 342 335 339 335 330 325 317 314 312 313 313 312 312 310 310 308 308 301 301 304 307 306 306 307 307 309 310 312 312 314 313 313 310 310 310 309 309 312 312 312 310 309 308 307 306 304 305 303 306 311 313 312 312 315 317 317 316 315 305 301 294 290 287 288 286 289 290 288 263 248 226 215 204 201 194